[[{"header":{"parameterUnit":"m.s-1","parameterCategory":1,"la1":30.2991,"la2":30.254,"lo1":-89.0895,"lo2":-89.0444,"dy":0.0017,"dx":0.0017,"nx":28,"ny":28,"refTime":"2024-05-29T03:00:00:Z","depth":0,"parameterNumber":2,"parameterNumberName":"U-component_of_WINDS"},"data":[0,0,0,0,0,0,0,0,0,0,0,0,0,0,0,0,0,0,0,0,0,0,0,0,0,0,0,0,0,0,0,0,0,0,0,0,0,0,0,0,0,0,0,0,0,0,0,0,0,0,0,0,0,0,0,0,0,0,0.3893,0.3892,0,0.3843,0.3842,0.3842,0.3782,0.3781,0.3781,0.378,0.3731,0.373,0.373,0,0,0,0,0,0,0,0,0,0,0,0,0,0.394,0.3939,0.3893,0.3892,0.3891,0.3843,0.3842,0.3842,0.3783,0.3781,0.378,0.3779,0.3731,0.373,0.373,0,0,0,0,0,0,0,0,0,0,0,0,0,0.3908,0.3939,0.3893,0.3856,0.3852,0.3843,0.3842,0.3841,0.3783,0.3781,0.378,0.3779,0.3731,0.373,0.373,0.3753,0,0,0.3728,0.3727,0,0,0,0,0,0,0,0,0.391,0.3906,0.3862,0.3859,0.3854,0.3817,0.3841,0.3812,0.3783,0.3809,0.378,0.3778,0.3761,0.3758,0.3751,0.3751,0.3749,0.3727,0.3727,0.3727,0.3727,0,0,0,0,0,0,0,0.3912,0.3908,0.3873,0.3862,0.3857,0.3843,0.3837,0.3835,0.3793,0.3807,0.3802,0.3797,0.3758,0.3752,0.375,0.3748,0.3727,0.3727,0.3726,0.3726,0.3767,0.3769,0,0,0,0,0,0,0.3919,0.391,0.3875,0.3871,0.3879,0.3843,0.3837,0.3831,0.3793,0.3786,0.3798,0.3795,0.3754,0.375,0.3748,0.3775,0.3727,0.3726,0.3726,0.3766,0.3768,0.3769,0,0,0,0,0,0,0.392,0.3917,0.3877,0.389,0.3883,0.3844,0.3838,0.383,0.3824,0.3787,0.3779,0.38,0.3753,0.3749,0.3753,0.3773,0.3726,0.3725,0.3764,0.3766,0.3768,0.3829,0,0,0,0,0,0,0.3922,0.3917,0.3925,0.389,0.3883,0.3882,0.3839,0.383,0.3823,0.3817,0.3786,0.3779,0.3751,0.3754,0.3752,0.3771,0.3725,0.3762,0.3765,0.3768,0.3825,0.3833,0.384,0,0,0,0,0,0.3924,0.3944,0.3926,0.3922,0.3892,0.3883,0.3879,0.3846,0.3824,0.3833,0.3809,0.378,0.377,0.3755,0.3752,0.3771,0.3761,0.3764,0.3768,0.3822,0.3831,0.384,0,0,0,0,0,0,0.3982,0.3938,0.3918,0.3927,0.3909,0.3873,0.3882,0.3856,0.3844,0.384,0.38,0.3793,0.3803,0.3787,0.3771,0.3793,0.3761,0.3765,0.3804,0.3812,0.382,0.3824,0.3724,0,0,0,0,0,0.3996,0.3992,0.3954,0.3965,0.3958,0.3922,0.3916,0.3892,0.3873,0.3865,0.3841,0.3824,0.3817,0.3814,0.3805,0.3822,0.3816,0.3834,0.3841,0.3847,0.3851,0.3862,0.387,0.378,0.378,0.378,0,0,0.4024,0.4,0.4,0.3977,0.396,0.3958,0.3916,0.3914,0.3913,0.3865,0.3868,0.385,0.3828,0.384,0.3844,0.3827,0.3874,0.3851,0.3857,0.3857,0.3866,0.3875,0.3883,0.3783,0.3782,0.3782,0,0,0.4076,0.4056,0.4065,0.4049,0.4025,0.4001,0.4003,0.3971,0.3958,0.396,0.3925,0.3923,0.3911,0.3898,0.389,0.3938,0.3913,0.3937,0.3976,0.3987,0.3994,0.4001,0.4021,0.4029,0.394,0.394,0.394,0,0.4115,0.411,0.4073,0.4075,0.4067,0.4023,0.4033,0.402,0.3994,0.399,0.3971,0.3957,0.3939,0.3948,0.3961,0.3954,0.3958,0.3941,0.3996,0.4002,0.4007,0.4026,0.4034,0.3943,0.3943,0.3943,0.3942,0,0.4161,0.4158,0.4168,0.4145,0.4137,0.4143,0.4109,0.4106,0.4083,0.4062,0.4067,0.4043,0.4031,0.403,0.4007,0.4037,0.4028,0.4003,0.3971,0.402,0.4037,0.4044,0.3948,0.3947,0.3946,0.3945,0,0,0.4248,0.4205,0.421,0.42,0.417,0.4168,0.4173,0.416,0.416,0.4144,0.4149,0.4141,0.4118,0.4109,0.4084,0.4094,0.4138,0.4068,0.4067,0.4085,0.4173,0.4195,0.4203,0.412,0.4121,0.4122,0.4176,0,0.4296,0.4302,0.4269,0.4284,0.4283,0.4242,0.4246,0.423,0.421,0.4207,0.4186,0.4182,0.4151,0.4145,0.4153,0.4131,0.4156,0.4126,0.4127,0.4127,0.4136,0.4212,0.4234,0.4286,0.4183,0.4184,0.4184,0,0.4353,0.4341,0.4356,0.4328,0.4327,0.4331,0.4319,0.4315,0.4296,0.4282,0.4273,0.4245,0.4249,0.4217,0.4225,0.4206,0.4204,0.4193,0.4194,0.4195,0.4161,0.4218,0.4301,0.4311,0.4194,0.4193,0.4193,0,0.4419,0.4406,0.4415,0.4407,0.4374,0.4379,0.4365,0.4345,0.434,0.4329,0.4327,0.4316,0.4311,0.4305,0.4276,0.4254,0.4288,0.4253,0.4279,0.428,0.4289,0.429,0.4377,0.4283,0.4283,0.4283,0.4283,0,0.4478,0.449,0.4444,0.445,0.4462,0.4425,0.4439,0.4421,0.4404,0.4407,0.437,0.4373,0.4333,0.4333,0.431,0.4321,0.4318,0.4309,0.4303,0.4314,0.4316,0.4314,0.4311,0.4285,0.4285,0.4284,0.4284,0,0.4555,0.4524,0.4531,0.4499,0.4492,0.4503,0.4477,0.4481,0.446,0.4464,0.4462,0.4429,0.4427,0.4397,0.4387,0.4372,0.4394,0.438,0.4401,0.4398,0.4427,0.4426,0.4518,0.453,0.4426,0.4427,0.4428,0,0.4596,0.4604,0.4574,0.4573,0.4561,0.456,0.4555,0.452,0.4517,0.4497,0.4505,0.45,0.4494,0.4493,0.4469,0.4462,0.445,0.4483,0.4449,0.446,0.4454,0.4455,0.4458,0.4491,0.4492,0.4493,0.4494,0,0.4673,0.4658,0.4652,0.4643,0.4639,0.4629,0.4617,0.4619,0.458,0.4579,0.4576,0.4572,0.4564,0.456,0.455,0.4537,0.4511,0.4505,0.4511,0.4523,0.4537,0.4533,0.4424,0.4503,0.4502,0.4502,0.4501,0.4501,0.4735,0.4741,0.4722,0.4718,0.4706,0.4696,0.47,0.4679,0.4676,0.4667,0.4646,0.4648,0.4631,0.4614,0.4604,0.4606,0.459,0.4598,0.46,0.4604,0.4611,0.4534,0.4604,0.4603,0.4603,0.4603,0.4603,0,0.4813,0.4798,0.4795,0.4781,0.4778,0.4752,0.4738,0.4739,0.474,0.4727,0.4722,0.4721,0.4718,0.4694,0.4688,0.4695,0.4683,0.4695,0.4696,0.4694,0.4624,0.4621,0.4705,0.4705,0.4705,0.4705,0.4705,0.4705,0.4853,0.4864,0.4847,0.4852,0.4838,0.4839,0.4834,0.4826,0.4815,0.4816,0.4813,0.4797,0.478,0.4774,0.4771,0.4764,0.4765,0.4782,0.4772,0.4708,0.4698,0.4689,0.4686,0.4782,0.4782,0.4841,0.4842,0.4842]},{"header":{"parameterUnit":"m.s-1","parameterCategory":1,"la1":30.2991,"la2":30.254,"lo1":-89.0895,"lo2":-89.0444,"dy":0.0017,"dx":0.0017,"nx":28,"ny":28,"refTime":"2024-05-29T03:00:00:Z","depth":0,"parameterNumber":3,"parameterNumberName":"V-component_of_WINDS"},"data":[0,0,0,0,0,0,0,0,0,0,0,0,0,0,0,0,0,0,0,0,0,0,0,0,0,0,0,0,0,0,0,0,0,0,0,0,0,0,0,0,0,0,0,0,0,0,0,0,0,0,0,0,0,0,0,0,0,0,-1.8243,-1.8243,0,-1.8271,-1.8271,-1.8271,-1.827,-1.8269,-1.8269,-1.8269,-1.8294,-1.8295,-1.8296,0,0,0,0,0,0,0,0,0,0,0,0,0,-1.8184,-1.8185,-1.8243,-1.8243,-1.8243,-1.8271,-1.8271,-1.8272,-1.827,-1.8269,-1.8269,-1.8268,-1.8294,-1.8295,-1.8296,0,0,0,0,0,0,0,0,0,0,0,0,0,-1.821,-1.8185,-1.8242,-1.8246,-1.8246,-1.8271,-1.8271,-1.8272,-1.827,-1.8269,-1.8269,-1.8268,-1.8293,-1.8295,-1.8296,-1.8318,0,0,-1.8301,-1.8302,0,0,0,0,0,0,0,0,-1.8209,-1.8212,-1.8245,-1.8246,-1.8246,-1.8266,-1.826,-1.8287,-1.827,-1.8261,-1.8269,-1.8268,-1.8285,-1.8287,-1.8294,-1.8319,-1.832,-1.8301,-1.8302,-1.8303,-1.8303,0,0,0,0,0,0,0,-1.8207,-1.8211,-1.8254,-1.8245,-1.8246,-1.8245,-1.8248,-1.8265,-1.8276,-1.8262,-1.8262,-1.8265,-1.8285,-1.8292,-1.8294,-1.8321,-1.8301,-1.8303,-1.8304,-1.8304,-1.8365,-1.8365,0,0,0,0,0,0,-1.8205,-1.821,-1.8253,-1.8254,-1.8226,-1.8246,-1.825,-1.826,-1.8276,-1.8278,-1.8266,-1.8265,-1.829,-1.8292,-1.8295,-1.8321,-1.8303,-1.8304,-1.8305,-1.8364,-1.8365,-1.8366,0,0,0,0,0,0,-1.8204,-1.8209,-1.8252,-1.8232,-1.8237,-1.8248,-1.826,-1.8261,-1.8268,-1.8279,-1.828,-1.8271,-1.8289,-1.8293,-1.8312,-1.8322,-1.8305,-1.8306,-1.8363,-1.8364,-1.8365,-1.8374,0,0,0,0,0,0,-1.8202,-1.8208,-1.8217,-1.8232,-1.8239,-1.8269,-1.8261,-1.8262,-1.8271,-1.8271,-1.8284,-1.8286,-1.8289,-1.831,-1.8314,-1.8324,-1.8308,-1.8362,-1.8364,-1.8365,-1.8373,-1.8375,-1.8377,0,0,0,0,0,-1.82,-1.8218,-1.8218,-1.8223,-1.825,-1.827,-1.8273,-1.8278,-1.8272,-1.8281,-1.8288,-1.8285,-1.8321,-1.8312,-1.8317,-1.8327,-1.8362,-1.8363,-1.8365,-1.8372,-1.8374,-1.8377,0,0,0,0,0,0,-1.8202,-1.822,-1.822,-1.8244,-1.8256,-1.827,-1.8281,-1.8281,-1.8294,-1.8292,-1.8296,-1.8299,-1.8319,-1.8325,-1.8315,-1.8349,-1.834,-1.8343,-1.8344,-1.8347,-1.8349,-1.8347,-1.8309,0,0,0,0,0,-1.8206,-1.8221,-1.8236,-1.8255,-1.8261,-1.827,-1.8279,-1.8281,-1.8293,-1.8298,-1.8306,-1.8317,-1.833,-1.8339,-1.8352,-1.8374,-1.8376,-1.8383,-1.8385,-1.8387,-1.8389,-1.84,-1.8403,-1.8371,-1.8371,-1.8371,0,0,-1.8213,-1.8224,-1.8234,-1.8256,-1.8265,-1.828,-1.8274,-1.829,-1.8301,-1.83,-1.8319,-1.8326,-1.8338,-1.8358,-1.8368,-1.8364,-1.8398,-1.8389,-1.839,-1.8391,-1.8402,-1.8405,-1.8408,-1.8372,-1.8371,-1.8371,0,0,-1.8233,-1.8244,-1.8261,-1.8271,-1.8286,-1.8292,-1.8296,-1.8311,-1.8315,-1.8335,-1.8334,-1.8347,-1.837,-1.8379,-1.8386,-1.841,-1.8408,-1.8414,-1.8425,-1.8436,-1.8439,-1.8441,-1.8449,-1.8452,-1.8416,-1.8416,-1.8416,0,-1.8239,-1.8263,-1.8269,-1.8286,-1.8296,-1.8297,-1.8314,-1.8323,-1.834,-1.8346,-1.8342,-1.8372,-1.838,-1.8402,-1.8408,-1.8415,-1.8419,-1.8412,-1.8438,-1.844,-1.8443,-1.845,-1.8453,-1.8417,-1.8417,-1.8417,-1.8417,0,-1.827,-1.8286,-1.8298,-1.8317,-1.8328,-1.8345,-1.8353,-1.8363,-1.8364,-1.837,-1.839,-1.84,-1.8415,-1.8421,-1.8422,-1.8444,-1.8441,-1.8437,-1.8429,-1.8446,-1.8453,-1.8456,-1.8418,-1.8417,-1.8417,-1.8417,0,0,-1.8291,-1.8314,-1.8319,-1.8327,-1.8344,-1.8356,-1.8373,-1.8389,-1.8397,-1.8409,-1.8423,-1.8443,-1.844,-1.8448,-1.8451,-1.8461,-1.8478,-1.8456,-1.8456,-1.8459,-1.8502,-1.8504,-1.8507,-1.8478,-1.8478,-1.8479,-1.8501,0,-1.8313,-1.8344,-1.835,-1.8376,-1.8391,-1.8393,-1.8407,-1.8418,-1.8424,-1.8437,-1.8443,-1.8457,-1.8453,-1.8458,-1.8468,-1.8474,-1.8487,-1.8473,-1.8489,-1.8489,-1.8485,-1.8511,-1.8514,-1.8534,-1.8504,-1.8504,-1.8504,0,-1.8342,-1.8357,-1.8384,-1.84,-1.8406,-1.8419,-1.8434,-1.8447,-1.8459,-1.8463,-1.8473,-1.8475,-1.8491,-1.8482,-1.8504,-1.8494,-1.8501,-1.8505,-1.8506,-1.8507,-1.8497,-1.8512,-1.854,-1.8543,-1.8509,-1.8509,-1.8508,0,-1.8354,-1.8381,-1.8401,-1.8408,-1.8427,-1.8436,-1.8443,-1.8456,-1.8465,-1.8478,-1.8484,-1.8498,-1.8505,-1.8516,-1.8521,-1.8514,-1.8542,-1.8534,-1.8544,-1.8544,-1.855,-1.8549,-1.8578,-1.8555,-1.8555,-1.8555,-1.8555,0,-1.8377,-1.8394,-1.8407,-1.8419,-1.8438,-1.8445,-1.8463,-1.847,-1.8481,-1.8494,-1.8496,-1.8508,-1.8514,-1.8526,-1.853,-1.8547,-1.8551,-1.8553,-1.8554,-1.8553,-1.8553,-1.8557,-1.8555,-1.8556,-1.8556,-1.8556,-1.8555,0,-1.8394,-1.8403,-1.8425,-1.8441,-1.8446,-1.8459,-1.8472,-1.8483,-1.849,-1.8506,-1.851,-1.852,-1.8535,-1.8541,-1.8559,-1.8562,-1.8581,-1.8581,-1.8577,-1.8577,-1.8587,-1.8586,-1.862,-1.8624,-1.8599,-1.8599,-1.8599,0,-1.8408,-1.8421,-1.8439,-1.8448,-1.8457,-1.8472,-1.8482,-1.8489,-1.8499,-1.8515,-1.8524,-1.8539,-1.8552,-1.8575,-1.8583,-1.8596,-1.8596,-1.8607,-1.8598,-1.8597,-1.8596,-1.8595,-1.8596,-1.8609,-1.8609,-1.8609,-1.8609,0,-1.8431,-1.8435,-1.845,-1.8467,-1.8479,-1.8492,-1.8504,-1.8512,-1.8521,-1.8531,-1.8547,-1.8557,-1.8576,-1.8591,-1.8605,-1.8612,-1.8612,-1.8612,-1.8615,-1.8614,-1.8611,-1.8612,-1.8581,-1.8611,-1.8611,-1.8611,-1.8611,-1.8611,-1.8446,-1.8458,-1.8473,-1.8489,-1.85,-1.8512,-1.8523,-1.8532,-1.8546,-1.8563,-1.8566,-1.8582,-1.8594,-1.8614,-1.8621,-1.8633,-1.8631,-1.8635,-1.8636,-1.8637,-1.8637,-1.861,-1.8636,-1.8636,-1.8636,-1.8636,-1.8636,0,-1.8469,-1.8479,-1.8494,-1.8512,-1.8525,-1.8526,-1.854,-1.855,-1.8565,-1.8577,-1.859,-1.8608,-1.8622,-1.8632,-1.8646,-1.8654,-1.8654,-1.8657,-1.8656,-1.8658,-1.8639,-1.8635,-1.8657,-1.8657,-1.8657,-1.8657,-1.8657,-1.8657,-1.8482,-1.8502,-1.8508,-1.8533,-1.8542,-1.856,-1.8568,-1.8579,-1.8588,-1.8609,-1.8621,-1.8628,-1.8639,-1.8654,-1.8667,-1.8669,-1.8674,-1.8677,-1.8679,-1.8661,-1.8659,-1.8657,-1.8653,-1.8678,-1.8678,-1.8697,-1.8697,-1.8697]}]]